Weather observations for the past three days for
Redwood Falls Municipal Airport
Metric (Imperial)
Date Time (cdt) Wind (kph) Vis. (km) Weather Sky Cond. Temperature (ºC) Relative Humidity Wind Chill (°C) Heat Index (°C) Pressure Precipitation (cm)
Air Dwpt 6 hour altimeter (cm) sea level (mb) 1 hr 3 hr 6 hr
Max. Min.
04 20:53 W 13 16.09 Fair CLR 8.3 -4.4 41% 6 75.54 1007.1
04 19:53 NW 24 G 39 16.09 Fair CLR 10 -5 35% 7 75.49 1006.7
04 18:53 NW 22 G 48 16.09 Fair CLR 11.1 -4.4 15.6 10.6 34% 75.46 1006.1
04 17:53 NW 22 G 52 16.09 A Few Clouds FEW070 11.7 -3.3 35% 75.41 1005.4
04 16:53 W 30 G 50 16.09 Partly Cloudy SCT060 12.8 -2.2 36% 75.36 1004.7
04 15:53 NW 41 G 65 16.09 A Few Clouds and Breezy FEW060 13.9 -1.1 36% 75.31 1004.0
04 14:53 NW 33 G 54 16.09 Fair and Breezy CLR 14.4 -1.1 35% 75.26 1003.5
04 13:53 W 43 G 59 16.09 Fair and Windy CLR 15 -2.2 31% 75.21 1002.8
04 12:53 NW 26 G 54 16.09 A Few Clouds FEW090 FEW110 13.3 -1.7 16.1 12.8 36% 75.18 1002.6
04 11:53 NW 28 G 57 16.09 Fair CLR 15.6 -1.1 32% 75.13 1001.5
04 10:53 NW 24 G 48 16.09 Fair CLR 15 1.1 39% 75.08 1001.0
04 09:53 NW 30 G 48 16.09 Fair CLR 14.4 1.7 42% 75.06 1000.7
04 08:53 NW 26 G 41 16.09 Fair CLR 13.9 1.7 44% 75.03 1000.3
04 07:53 NW 22 G 43 16.09 Fair CLR 12.8 2.8 51% 75.01 999.8
04 06:53 NW 24 G 43 16.09 Fair CLR 13.3 2.8 15 11.1 49% 74.93 998.7
04 05:53 W 26 G 41 16.09 Fair CLR 13.9 1.1 42% 74.85 997.6
04 04:53 SW 30 16.09 Fair CLR 13.9 0 39% 74.78 996.6
04 03:53 SW 24 16.09 Fair CLR 11.7 -0.6 43% 74.83 997.5
04 02:53 SW 24 16.09 Fair CLR 11.7 -0.6 43% 74.9 998.6
04 01:53 SW 20 16.09 Fair CLR 11.7 0 45% 75.01 999.8
04 00:53 SW 20 16.09 Fair CLR 11.1 -0.6 21.1 11.1 45% 75.11 1001.3
03 23:53 SW 15 16.09 Fair CLR 13.9 -2.8 32% 75.18 1002.3
03 22:53 SW 15 16.09 Fair CLR 12.8 -1.1 38% 75.26 1003.2
03 21:53 SW 13 16.09 Fair CLR 15 -1.7 32% 75.31 1004.0
03 20:53 SW 11 16.09 Fair CLR 18.3 -2.2 25% 75.34 1004.3
03 19:53 W 13 16.09 Fair CLR 19.4 -1.1 25% 75.36 1004.5
03 18:53 W 26 G 35 16.09 Fair CLR 21.1 -0.6 21.7 18.9 23% 75.39 1004.9
03 17:53 NW 22 16.09 Fair CLR 21.7 -1.1 22% 75.44 1005.7
03 16:53 NW 19 16.09 Fair CLR 21.7 -0.6 23% 75.49 1006.2
03 15:53 W 20 G 35 16.09 Fair CLR 21.1 0.6 26% 75.54 1007.0
03 14:53 NW 28 G 39 16.09 Fair CLR 20.6 1.1 27% 75.59 1007.8
03 13:53 NW 26 G 37 16.09 Fair CLR 20.6 1.1 27% 75.64 1008.3
03 12:53 NW 24 G 48 16.09 Fair CLR 19.4 1.1 19.4 9.4 30% 75.69 1008.9
03 11:53 NW 28 G 52 16.09 Fair CLR 18.3 1.7 33% 75.72 1009.4
03 10:53 NW 22 G 44 16.09 Fair CLR 17.8 2.8 37% 75.72 1009.4
03 09:53 NW 20 G 39 16.09 Fair CLR 15 3.9 48% 75.72 1009.3
03 08:53 NW 24 G 37 16.09 Fair CLR 13.3 3.3 51% 75.69 1009.0
03 07:53 NW 17 G 33 16.09 Fair CLR 10.6 2.2 56% 75.62 1008.2
03 06:53 NW 20 G 35 16.09 Fair CLR 9.4 1.7 16.1 9.4 59% 7 75.54 1007.0
03 05:53 NW 24 16.09 Fair CLR 9.4 1.7 59% 7 75.46 1006.2
03 04:53 W 20 16.09 Fair CLR 9.4 2.8 64% 7 75.46 1005.8
03 03:53 W 22 16.09 Fair CLR 11.1 2.2 55% 75.44 1005.5
03 02:53 SW 15 16.09 Fair CLR 11.1 0 47% 75.41 1005.4
03 01:53 S 19 16.09 Partly Cloudy SCT110 13.9 -1.1 36% 75.46 1005.7
03 00:53 S 30 G 46 16.09 Mostly Cloudy BKN100 BKN110 16.1 -1.7 18.3 15 30% 75.49 1006.2
02 23:53 S 22 16.09 Overcast FEW055 BKN095 OVC110 16.1 0 34% 75.57 1007.4
02 22:53 SE 15 16.09 Overcast FEW050 BKN090 OVC110 16.1 -0.6 32% 75.62 1008.1
02 21:53 S 17 G 28 16.09 Overcast FEW055 OVC095 16.7 -1.1 30% 75.69 1009.3
02 20:53 S 20 16.09 Overcast OVC100 16.7 -0.6 31% 75.67 1009.0
02 19:53 S 9 16.09 Overcast OVC100 17.8 0 30% 75.74 1010.2
02 18:53 S 7 16.09 Overcast OVC100 17.8 -0.6 21.1 17.2 29% 75.82 1011.1
02 17:53 W 19 G 39 16.09 Mostly Cloudy BKN110 18.9 -2.2 24% 75.84 1011.6
02 16:53 SW 22 G 41 16.09 A Few Clouds FEW090 20 -2.2 22% 75.87 1011.7
02 15:53 SW 26 G 37 16.09 Fair CLR 20.6 -1.7 22% 75.95 1012.6
02 14:53 SW 22 G 39 16.09 Fair CLR 19.4 -0.6 26% 76 1013.5
02 13:53 W 13 16.09 Fair CLR 18.9 -1.1 26% 76.1 1014.7
02 12:53 SW 22 G 31 16.09 Fair CLR 17.8 -1.7 17.8 2.2 27% 76.17 1015.9
02 11:53 W 17 G 30 16.09 Fair CLR 15.6 -2.2 30% 76.28 1017.2
02 10:53 W 22 16.09 Fair CLR 14.4 -2.8 31% 76.33 1018.0
02 09:53 SW 20 16.09 Fair CLR 12.2 -2.2 37% 76.38 1018.7
02 08:53 SW 20 16.09 Fair CLR 8.9 -2.2 46% 6 76.4 1019.3
02 07:53 SW 11 16.09 Fair CLR 5.6 -2.8 55% 3 76.45 1019.8
02 06:53 SW 11 16.09 Fair CLR 2.2 -3.3 5 1.1 67% -1 76.43 1019.8
02 05:53 SW 11 16.09 Fair CLR 1.7 -3.3 70% -1 76.45 1019.9
02 04:53 W 6 16.09 Fair CLR 2.2 -3.3 67% 76.45 1020.1
02 03:53 W 7 16.09 Fair CLR 2.2 -3.3 67% 0 76.45 1019.9
02 02:53 SW 7 16.09 Fair CLR 2.2 -2.8 70% 0 76.45 1020.0
02 01:53 SW 7 16.09 Fair CLR 3.3 -3.3 62% 2 76.48 1020.2
02 00:53 SW 7 16.09 Fair CLR 5 -3.9 11.1 3.9 53% 4 76.48 1020.5
01 23:53 W 7 16.09 Fair CLR 5 -3.9 53% 4 76.48 1020.3
01 22:53 SW 7 16.09 Fair CLR 5 -3.9 53% 4 76.48 1020.3
01 21:53 SW 6 16.09 Fair CLR 7.2 -3.9 46% 76.48 1020.3
Date Time (cdt) Wind (kph) Vis. (km) Weather Sky Cond. Air Dwpt Max. Min. Relative Humidity Wind Chill (°C) Heat Index (°C) altimeter (cm) sea level (mb) 1 hr 3 hr 6 hr
6 hour
Temperature (ºC) Pressure Precipitation (cm)